Погода в Муравлянке

Россия / Рязанская область     53°44′26″N   38°59′15″E
темп.,
°C
ветер,
м/с
пор.,
м/с
влажн.,
%
обл.,
%
осадки,
мм/ч
давл.,
гПа
погр.,
м
28 июня, вт
вт2800:00+20ссв35890 0.0 101877
03:00+19с34830 0.0 101846
06:00+20с35855 0.0 1018136
09:00+24ссв56725 0.0 1018538
12:00+25ссв67671 1.4 10181099
15:00+24ссв67564 1.4 10191310
18:00+22ссв57620 0.0 1019638
21:00+16всв34750 0.0 102056
29 июня, ср
ср2900:00+13всв34755 0.0 102262
03:00+12в22814 0.0 102321
06:00+13в23803 0.0 1023110
09:00+18в336557 0.0 1022617
12:00+20всв3253100 0.0 10231470
15:00+20св325196 0.0 10211610
18:00+20св225986 0.0 10211455
21:00+15св11670 0.0 102011
30 июня, чт
чт3000:00+13сз11690 0.0 102110
03:00+12сз22733 0.0 102117
06:00+13ссз35790 0.0 1021140
09:00+18ссз456317 0.0 1020598
12:00+21с574966 0.0 10201545
15:00+22с564840 0.0 10191730
18:00+21ссз466158 0.0 1018877
21:00+16сз4769100 0.0 1018105
1 июля, пт
пт100:00+14ссз4672100 0.0 1019102
03:00+13с35770 0.0 101979
06:00+14с49820 0.0 1020246
09:00+19св45600 0.0 1020598
12:00+22ссв46480 0.0 10201705
15:00+22ссв46480 0.0 10201874
18:00+22с26570 0.0 10201803
21:00+17зсз22700 0.0 102013
2 июля, сб
сб200:00+15сз33783 0.0 102122
03:00+14зсз22811 0.0 102120
06:00+16сз247943 0.0 102194
09:00+21зсз226684 0.0 1020433
12:00+25зсз1253100 0.0 10191241
15:00+26сз334871 0.0 10181658
18:00+26зсз24595 0.0 1017904
21:00+20зсз48805 0.2 1017149